Погода в Дармштадте

Германия     49°52′07″N   8°38′52″E
темп.,
°C
ветер,
м/с
пор.,
м/с
влажн.,
%
обл.,
%
осадки,
мм/ч
давл.,
гПа
погр.,
м
17 апреля, сб
сб1723:00+3юв118596 0.0 102512
02:00+2св118761 0.0 102513
05:00+2ссв119079 0.0 102419
08:00+3ссв248067 0.0 1024209
11:00+8ссв34529 0.0 10231137
14:00+9ссв555697 0.0 10221439
17:00+6ссв468292 0.1 1021734
20:00+6св368093 0.2 1022652
18 апреля, вс
вс1823:00+5всв1285100 0.0 1022142
02:00+5св1389100 0.1 1022327
05:00+5всв1189100 0.0 102165
08:00+5сз1189100 0.1 102191
11:00+6ссз1290100 0.6 1021298
14:00+6сз1292100 1.7 1021420
17:00+7с1189100 0.2 1020293
20:00+6сз009441 0.2 102111
19 апреля, пн
пн1923:00+4юв119554 0.0 102110
02:00+4ю1193100 0.1 102013
05:00+5юз1194100 0.3 102020
08:00+5юз1194100 0.3 102049
11:00+9зсз118397 0.0 1019413
14:00+13с116339 0.2 10181035
17:00+12ссв126096 0.5 10171016
20:00+9св128180 1.3 101621
20 апреля, вт
вт2023:00+6в11885 0.2 101711
02:00+6в119036 0.2 101712
05:00+5всв119215 0.0 101715
08:00+7всв12886 0.0 101786
11:00+12всв23635 0.0 10171037
14:00+14ссв234494 0.1 10151939
17:00+14св22465 0.0 10151155
20:00+10всв11623 0.0 101514
21 апреля, ср
ср2123:00+8ююв11675 0.0 101610
02:00+7ююз217118 0.0 101713
05:00+5ююз11805 0.0 101711
08:00+8з11765 0.0 101876
11:00+13с236115 0.0 1019828
14:00+15с335032 0.3 10181597
17:00+15ссв344889 0.1 10181469
20:00+11св1267100 0.1 101941